Hourly Data Report for October 24, 2013

All times are specified in Local Standard Time (LST). Add 1 hour to adjust for Daylight Saving Time where and when it is observed.

IQALUIT CLIMATE
NUNAVUT

63°44'50.000" N
68°32'40.000" W
33.50 m
2402592
71321
XFB

Download Data

Hourly Data (October 2013)
Hourly Data Report for October 24, 2013
Temp Definition
°C
Dew Point Temp Definition
°C
Rel Hum Definition
%
Wind Dir Definition
10's deg

Wind Spd Definition
km/h
Visibility Definition
km
Stn Press Definition
kPa
Hmdx Definition


Wind Chill Definition


Weather Definition


TIME
00:00 -3.3 -6.6 78 5 19   100.60   -9 LegendNANA
01:00 -4.0 -6.9 80 5 15   100.58   -9 LegendNANA
02:00 -3.5 -6.9 77 5 13   100.55   -8 LegendNANA
03:00 -3.8 -7.0 78 5 13   100.55   -9 LegendNANA
04:00 -3.9 -7.1 78 5 13   100.52   -9 LegendNANA
05:00 -3.6 -7.4 75 5 19   100.49   -10 LegendNANA
06:00 -3.5 -7.6 73 6 19   100.47   -9 LegendNANA
07:00 -3.3 -7.5 73 7 22   100.48   -10 LegendNANA
08:00 -3.4 -7.2 75 6 20   100.47   -10 LegendNANA
09:00 -2.5 -6.6 73 6 22   100.44   -9 LegendNANA
10:00 -1.3 -6.2 69 6 20   100.41   -7 LegendNANA
11:00 -1.2 -6.2 69 4 20   100.38   -7 LegendNANA
12:00 -1.1 -6.4 67 5 24   100.35   -7 LegendNANA
13:00 -1.0 -6.3 67 5 20   100.33   -7 LegendNANA
14:00 -1.4 -7.0 66 5 22   100.30   -7 LegendNANA
15:00 -1.8 -6.9 68 5 15   100.29   -7 LegendNANA
16:00 -2.6 -7.1 71 5 13   100.29   -7 LegendNANA
17:00 -3.4 -7.3 74 3 11   100.27   -8 LegendNANA
18:00 -3.4 -7.5 73 4 11   100.24   -8 LegendNANA
19:00 -5.4 -8.1 81 32 9   100.21   -9 LegendNANA
20:00 -4.8 -8.0 78 2 11   100.17   -9 LegendNANA
21:00 -5.5 -7.9 83 33 13   100.12   -11 LegendNANA
22:00 -4.9 -7.8 80 36 11   100.08   -9 LegendNANA
23:00 -4.6 -7.5 80 36 13   100.05   -10 LegendNANA

Notes on Data Quality.

Legend

  • E = Estimated
  • M = Missing
  • NA = Not Available
  • ‡ = Partner data that is not subject to review by the National Climate Archives
Date modified: